| time (UTC) | temp F | wind direction | speed MPH | gust MPH | rain 1hr in | rain 24hr in | rain mn in | humidity % | barometer mb |
| 20260904075815 | 56 | 359 | 2.0 | 3.0 | 0.00 | 0.06 | 0.00 | 84 | 1010.2 |
| 20260904075311 | 56 | 18 | 2.0 | 4.0 | 0.00 | 0.06 | 0.00 | 84 | 1010.2 |
| 20260904074806 | 56 | 21 | 2.0 | 4.0 | 0.00 | 0.07 | 0.00 | 84 | 1010.2 |
| 20260904074305 | 56 | 4 | 2.0 | 3.0 | 0.00 | 0.07 | 0.00 | 84 | 1010.2 |
| 20260904073802 | 56 | 9 | 2.0 | 3.0 | 0.00 | 0.07 | 0.00 | 84 | 1010.0 |
| 20260904073302 | 56 | 359 | 2.0 | 4.0 | 0.00 | 0.07 | 0.00 | 84 | 1010.0 |
| 20260904072805 | 56 | 359 | 2.0 | 4.0 | 0.00 | 0.07 | 0.00 | 84 | 1010.0 |
| 20260904072313 | 56 | 355 | 2.0 | 4.0 | 0.00 | 0.07 | 0.00 | 84 | 1009.9 |
| 20260904071808 | 56 | 9 | 2.0 | 3.0 | 0.00 | 0.07 | 0.00 | 84 | 1009.9 |
| 20260904071258 | 56 | 16 | 2.0 | 3.0 | 0.00 | 0.07 | 0.00 | 84 | 1009.9 |
| 20260904070752 | 56 | 26 | 2.0 | 3.0 | 0.00 | 0.07 | 0.00 | 84 | 1009.8 |
| 20260904070245 | 56 | 18 | 1.0 | 3.0 | 0.00 | 0.07 | 0.00 | 83 | 1009.8 |
| 20260904070023 | 56 | 350 | 1.0 | 3.0 | 0.00 | 0.07 | 0.07 | 83 | 1009.8 |
| 20260904065233 | 56 | 250 | 1.0 | 2.0 | 0.00 | 0.07 | 0.07 | 83 | 1009.8 |
| 20260904065020 | 56 | 250 | 1.0 | 2.0 | 0.00 | 0.07 | 0.07 | 83 | 1009.8 |
| 20260904064231 | 56 | 9 | 0.0 | 1.0 | 0.00 | 0.07 | 0.07 | 83 | 1009.8 |
| 20260904063729 | 56 | 9 | 1.0 | 2.0 | 0.00 | 0.07 | 0.07 | 83 | 1009.8 |
| 20260904063235 | 56 | 9 | 1.0 | 3.0 | 0.00 | 0.07 | 0.07 | 83 | 1009.8 |
| 20260904062729 | 56 | 9 | 2.0 | 3.0 | 0.00 | 0.07 | 0.07 | 83 | 1009.8 |
| 20260904062230 | 56 | 9 | 2.0 | 3.0 | 0.00 | 0.07 | 0.07 | 83 | 1009.8 |
| 20260904061731 | 56 | 4 | 2.0 | 3.0 | 0.00 | 0.07 | 0.07 | 83 | 1009.8 |
| 20260904061525 | 56 | 23 | 1.0 | 3.0 | 0.00 | 0.07 | 0.07 | 82 | 1009.8 |
| 20260904060729 | 56 | 75 | 0.0 | 2.0 | 0.00 | 0.07 | 0.07 | 82 | 1009.8 |
| 20260904060512 | 56 | 152 | 0.0 | 1.0 | 0.00 | 0.07 | 0.07 | 81 | 1009.8 |
| 20260904055737 | 56 | 152 | 1.0 | 2.0 | 0.00 | 0.07 | 0.07 | 80 | 1009.8 |
| 20260904055230 | 56 | 152 | 2.0 | 4.0 | 0.00 | 0.07 | 0.07 | 80 | 1009.9 |
| 20260904054732 | 56 | 153 | 2.0 | 4.0 | 0.00 | 0.07 | 0.07 | 80 | 1009.9 |
| 20260904054233 | 56 | 171 | 1.0 | 3.0 | 0.00 | 0.07 | 0.07 | 81 | 1009.9 |
| 20260904053734 | 56 | 359 | 1.0 | 2.0 | 0.00 | 0.07 | 0.07 | 82 | 1009.8 |
| 20260904053224 | 56 | 359 | 1.0 | 2.0 | 0.00 | 0.07 | 0.07 | 82 | 1009.8 |
| 20260904052712 | 56 | 337 | 0.0 | 2.0 | 0.00 | 0.07 | 0.07 | 82 | 1009.8 |
| 20260904052205 | 56 | 282 | 0.0 | 2.0 | 0.00 | 0.07 | 0.07 | 82 | 1009.8 |
| 20260904051958 | 56 | 271 | 0.0 | 0.0 | 0.00 | 0.07 | 0.07 | 81 | 1009.8 |
| 20260904051451 | 56 | 271 | 0.0 | 1.0 | 0.00 | 0.07 | 0.07 | 81 | 1009.8 |
| 20260904051001 | 57 | 271 | 0.0 | 1.0 | 0.00 | 0.07 | 0.07 | 80 | 1009.8 |
| 20260904050204 | 57 | 271 | 0.0 | 1.0 | 0.00 | 0.07 | 0.07 | 80 | 1009.8 |
| 20260904045949 | 57 | 271 | 0.0 | 1.0 | 0.00 | 0.07 | 0.07 | 79 | 1009.8 |
| 20260904045153 | 57 | 271 | 0.0 | 1.0 | 0.00 | 0.07 | 0.07 | 79 | 1009.7 |
| 20260904044641 | 57 | 271 | 0.0 | 1.0 | 0.00 | 0.07 | 0.07 | 78 | 1009.7 |
| 20260904044136 | 57 | 271 | 1.0 | 3.0 | 0.00 | 0.07 | 0.07 | 78 | 1009.7 |
| 20260904043631 | 57 | 271 | 1.0 | 3.0 | 0.00 | 0.07 | 0.07 | 77 | 1009.7 |
| 20260904043428 | 57 | 217 | 2.0 | 4.0 | 0.00 | 0.07 | 0.07 | 76 | 1009.7 |
| 20260904042628 | 57 | 177 | 3.0 | 5.0 | 0.00 | 0.07 | 0.07 | 77 | 1009.7 |
| 20260904042127 | 57 | 159 | 3.0 | 5.0 | 0.00 | 0.07 | 0.07 | 77 | 1009.7 |
| 20260904041731 | 57 | 147 | 2.0 | 5.0 | 0.00 | 0.07 | 0.07 | 79 | 1009.7 |
| 20260904040622 | 57 | 248 | 1.0 | 3.0 | 0.00 | 0.07 | 0.07 | 77 | 1009.7 |
| 20260904040418 | 57 | 212 | 1.0 | 3.0 | 0.00 | 0.07 | 0.07 | 76 | 1009.7 |
| 20260904035607 | 58 | 238 | 1.0 | 3.0 | 0.00 | 0.07 | 0.07 | 75 | 1009.5 |
| 20260904035102 | 58 | 248 | 1.0 | 2.0 | 0.00 | 0.07 | 0.07 | 76 | 1009.5 |
| 20260904034601 | 58 | 252 | 1.0 | 2.0 | 0.00 | 0.07 | 0.07 | 75 | 1009.5 |
| 20260904034354 | 58 | 211 | 1.0 | 3.0 | 0.00 | 0.07 | 0.07 | 74 | 1009.3 |
| 20260904033602 | 58 | 186 | 1.0 | 3.0 | 0.00 | 0.07 | 0.07 | 73 | 1009.3 |
| 20260904033353 | 58 | 161 | 1.0 | 2.0 | 0.00 | 0.07 | 0.07 | 72 | 1009.3 |
| 20260904032554 | 58 | 267 | 1.0 | 3.0 | 0.00 | 0.07 | 0.07 | 71 | 1009.2 |
| 20260904032049 | 59 | 265 | 2.0 | 3.0 | 0.00 | 0.07 | 0.07 | 71 | 1009.2 |
| 20260904031846 | 59 | 218 | 2.0 | 4.0 | 0.00 | 0.07 | 0.07 | 69 | 1009.2 |
| 20260904031049 | 59 | 213 | 2.0 | 5.0 | 0.00 | 0.07 | 0.07 | 69 | 1009.3 |
| 20260904030547 | 59 | 150 | 3.0 | 5.0 | 0.00 | 0.07 | 0.07 | 68 | 1009.3 |
| 20260904030346 | 59 | 163 | 2.0 | 4.0 | 0.00 | 0.07 | 0.07 | 68 | 1009.3 |
| 20260904025840 | 59 | 178 | 2.0 | 4.0 | 0.00 | 0.07 | 0.07 | 68 | 1009.2 |
| 20260904025041 | 59 | 209 | 2.0 | 6.0 | 0.00 | 0.07 | 0.07 | 68 | 1009.2 |
| 20260904024621 | 59 | 179 | 2.0 | 6.0 | 0.00 | 0.07 | 0.07 | 68 | 1009.2 |
| 20260904023536 | 59 | 174 | 2.0 | 4.0 | 0.00 | 0.07 | 0.07 | 68 | 1009.2 |
| 20260904023340 | 59 | 246 | 2.0 | 4.0 | 0.00 | 0.07 | 0.07 | 68 | 1009.2 |
| 20260904022834 | 59 | 256 | 2.0 | 4.0 | 0.00 | 0.07 | 0.07 | 68 | 1009.2 |
| 20260904022018 | 59 | 185 | 3.0 | 5.0 | 0.00 | 0.07 | 0.07 | 67 | 1009.2 |
| 20260904021515 | 59 | 157 | 3.0 | 5.0 | 0.00 | 0.07 | 0.07 | 67 | 1009.2 |
| 20260904021311 | 59 | 154 | 4.0 | 7.0 | 0.00 | 0.07 | 0.07 | 68 | 1009.0 |
| 20260904020505 | 59 | 174 | 4.0 | 11.0 | 0.00 | 0.07 | 0.07 | 68 | 1009.0 |
| 20260904020003 | 60 | 230 | 4.0 | 11.0 | 0.00 | 0.07 | 0.07 | 68 | 1009.0 |
| 20260904015505 | 60 | 216 | 3.0 | 6.0 | 0.00 | 0.07 | 0.07 | 68 | 1008.9 |
| 20260904015001 | 60 | 197 | 3.0 | 5.0 | 0.00 | 0.07 | 0.07 | 69 | 1008.9 |
| 20260904014501 | 60 | 229 | 3.0 | 5.0 | 0.00 | 0.07 | 0.07 | 69 | 1008.9 |
| 20260904014304 | 60 | 238 | 3.0 | 5.0 | 0.00 | 0.07 | 0.07 | 69 | 1009.0 |
| 20260904013501 | 60 | 207 | 3.0 | 5.0 | 0.00 | 0.07 | 0.07 | 68 | 1009.0 |
| 20260904013300 | 60 | 209 | 4.0 | 14.0 | 0.00 | 0.07 | 0.07 | 68 | 1009.0 |
| 20260904012507 | 59 | 188 | 5.0 | 14.0 | 0.00 | 0.07 | 0.07 | 68 | 1008.9 |
| 20260904012000 | 60 | 139 | 6.0 | 13.0 | 0.00 | 0.07 | 0.07 | 68 | 1008.9 |
| 20260904011721 | 60 | 203 | 5.0 | 13.0 | 0.00 | 0.07 | 0.07 | 67 | 1008.9 |
| 20260904011504 | 60 | 203 | 5.0 | 13.0 | 0.00 | 0.07 | 0.07 | 67 | 1008.9 |
| 20260904011003 | 60 | 148 | 4.0 | 10.0 | 0.00 | 0.07 | 0.07 | 67 | 1008.7 |
| 20260904010504 | 60 | 173 | 4.0 | 10.0 | 0.00 | 0.07 | 0.07 | 67 | 1008.7 |
| 20260904010001 | 60 | 181 | 4.0 | 10.0 | 0.00 | 0.07 | 0.07 | 70 | 1008.7 |
| 20260904005449 | 59 | 214 | 6.0 | 12.0 | 0.00 | 0.07 | 0.07 | 70 | 1008.9 |
| 20260904004938 | 59 | 170 | 7.0 | 12.0 | 0.00 | 0.07 | 0.07 | 70 | 1008.9 |
| 20260904004434 | 59 | 159 | 6.0 | 13.0 | 0.00 | 0.07 | 0.07 | 71 | 1008.9 |
| 20260904003933 | 60 | 147 | 6.0 | 13.0 | 0.00 | 0.07 | 0.07 | 71 | 1009.2 |
| 20260904003820 | 60 | 163 | 7.0 | 15.0 | 0.00 | 0.07 | 0.07 | 70 | 1009.2 |
| 20260904002430 | 61 | 238 | 7.0 | 14.0 | 0.00 | 0.07 | 0.07 | 68 | 1009.1 |
| 20260904001929 | 61 | 174 | 5.0 | 14.0 | 0.00 | 0.07 | 0.07 | 68 | 1009.1 |
| 20260904001429 | 61 | 178 | 5.0 | 12.0 | 0.00 | 0.07 | 0.07 | 69 | 1009.1 |
| 20260904000929 | 60 | 150 | 5.0 | 12.0 | 0.00 | 0.07 | 0.07 | 70 | 1009.1 |
| 20260904000432 | 61 | 148 | 5.0 | 11.0 | 0.00 | 0.07 | 0.07 | 69 | 1009.1 |
| 20260904000022 | 61 | 199 | 5.0 | 10.0 | 0.00 | 0.07 | 0.07 | 70 | 1009.1 |
| 20260903234945 | 60 | 173 | 4.0 | 8.0 | 0.00 | 0.07 | 0.07 | 70 | 1009.2 |
| 20260903234435 | 60 | 208 | 5.0 | 11.0 | 0.00 | 0.07 | 0.07 | 69 | 1009.2 |
| 20260903233938 | 61 | 204 | 6.0 | 11.0 | 0.00 | 0.07 | 0.07 | 68 | 1009.2 |
| 20260903233752 | 61 | 173 | 6.0 | 11.0 | 0.00 | 0.07 | 0.07 | 68 | 1009.2 |
| 20260903232934 | 61 | 236 | 6.0 | 11.0 | 0.00 | 0.07 | 0.07 | 68 | 1009.2 |
| 20260903232433 | 60 | 205 | 8.0 | 15.0 | 0.00 | 0.07 | 0.07 | 69 | 1009.2 |
| 20260903231940 | 60 | 169 | 9.0 | 15.0 | 0.00 | 0.07 | 0.07 | 68 | 1009.2 |
| 20260903231523 | 61 | 258 | 7.0 | 15.0 | 0.00 | 0.07 | 0.07 | 68 | 1009.2 |
| 20260903230717 | 61 | 171 | 7.0 | 16.0 | 0.00 | 0.07 | 0.07 | 69 | 1009.2 |
| 20260903225913 | 61 | 269 | 7.0 | 16.0 | 0.00 | 0.07 | 0.07 | 69 | 1009.2 |
| 20260903225410 | 61 | 239 | 7.0 | 15.0 | 0.00 | 0.07 | 0.07 | 69 | 1009.1 |
| 20260903224924 | 61 | 201 | 8.0 | 15.0 | 0.00 | 0.07 | 0.07 | 68 | 1009.1 |
| 20260903224428 | 61 | 188 | 9.0 | 15.0 | 0.00 | 0.07 | 0.07 | 67 | 1009.1 |
| 20260903223910 | 61 | 221 | 9.0 | 15.0 | 0.00 | 0.07 | 0.07 | 66 | 1009.2 |
| 20260903223416 | 61 | 232 | 8.0 | 15.0 | 0.00 | 0.07 | 0.07 | 65 | 1009.2 |
| 20260903223210 | 61 | 194 | 9.0 | 18.0 | 0.00 | 0.07 | 0.07 | 65 | 1009.2 |
| 20260903222412 | 61 | 236 | 9.0 | 18.0 | 0.00 | 0.07 | 0.07 | 65 | 1009.2 |
| 20260903221708 | 62 | 226 | 7.0 | 13.0 | 0.00 | 0.07 | 0.07 | 68 | 1009.2 |
| 20260903220904 | 61 | 248 | 6.0 | 12.0 | 0.00 | 0.07 | 0.07 | 71 | 1009.2 |
| 20260903220444 | 62 | 215 | 6.0 | 12.0 | 0.00 | 0.07 | 0.07 | 71 | 1009.2 |
| 20260903215406 | 62 | 246 | 7.0 | 13.0 | 0.00 | 0.08 | 0.07 | 68 | 1008.9 |
| 20260903214905 | 62 | 252 | 6.0 | 12.0 | 0.00 | 0.08 | 0.07 | 67 | 1008.9 |
| 20260903214408 | 62 | 278 | 5.0 | 12.0 | 0.00 | 0.09 | 0.07 | 67 | 1008.9 |
| 20260903213910 | 62 | 213 | 4.0 | 10.0 | 0.00 | 0.09 | 0.07 | 66 | 1008.9 |
| 20260903213400 | 62 | 272 | 6.0 | 15.0 | 0.00 | 0.10 | 0.07 | 66 | 1008.9 |
| 20260903212851 | 62 | 246 | 7.0 | 15.0 | 0.00 | 0.10 | 0.07 | 65 | 1008.9 |
| 20260903212344 | 63 | 271 | 7.0 | 15.0 | 0.00 | 0.11 | 0.07 | 65 | 1008.7 |
| 20260903211846 | 64 | 237 | 7.0 | 17.0 | 0.00 | 0.13 | 0.07 | 64 | 1008.7 |
| 20260903211344 | 64 | 229 | 7.0 | 17.0 | 0.00 | 0.13 | 0.07 | 60 | 1008.7 |
| 20260903210848 | 64 | 248 | 5.0 | 11.0 | 0.00 | 0.14 | 0.07 | 60 | 1008.6 |
| 20260903210633 | 63 | 269 | 4.0 | 10.0 | 0.00 | 0.14 | 0.07 | 61 | 1008.6 |
| 20260903205845 | 63 | 217 | 3.0 | 7.0 | 0.00 | 0.14 | 0.07 | 62 | 1008.6 |
| 20260903205633 | 63 | 225 | 4.0 | 9.0 | 0.00 | 0.15 | 0.07 | 63 | 1008.7 |
| 20260903204850 | 62 | 219 | 5.0 | 10.0 | 0.00 | 0.16 | 0.07 | 64 | 1008.7 |
| 20260903204331 | 62 | 136 | 5.0 | 10.0 | 0.00 | 0.16 | 0.07 | 64 | 1008.7 |
| 20260903203834 | 62 | 221 | 6.0 | 13.0 | 0.00 | 0.17 | 0.07 | 64 | 1008.7 |
| 20260903203335 | 62 | 235 | 6.0 | 13.0 | 0.00 | 0.17 | 0.07 | 63 | 1008.7 |
| 20260903202830 | 63 | 191 | 6.0 | 15.0 | 0.00 | 0.18 | 0.07 | 62 | 1008.7 |
| 20260903202329 | 62 | 192 | 7.0 | 15.0 | 0.00 | 0.18 | 0.07 | 64 | 1008.7 |
| 20260903201916 | 62 | 184 | 6.0 | 14.0 | 0.00 | 0.19 | 0.07 | 64 | 1008.7 |
| 20260903200829 | 62 | 220 | 7.0 | 14.0 | 0.00 | 0.19 | 0.07 | 64 | 1008.7 |
| 20260903200331 | 62 | 174 | 7.0 | 15.0 | 0.00 | 0.20 | 0.07 | 65 | 1008.7 |
| 20260903195835 | 62 | 156 | 6.0 | 15.0 | 0.00 | 0.20 | 0.07 | 65 | 1008.7 |
| 20260903195326 | 62 | 196 | 7.0 | 13.0 | 0.00 | 0.20 | 0.07 | 67 | 1008.7 |
| 20260903194811 | 61 | 173 | 7.0 | 15.0 | 0.00 | 0.21 | 0.07 | 68 | 1008.7 |
| 20260903194650 | 61 | 168 | 6.0 | 15.0 | 0.00 | 0.21 | 0.07 | 68 | 1008.7 |
| 20260903193543 | 61 | 171 | 7.0 | 14.0 | 0.00 | 0.21 | 0.07 | 69 | 1008.7 |
| 20260903192748 | 61 | 192 | 7.0 | 15.0 | 0.00 | 0.21 | 0.07 | 71 | 1008.7 |
| 20260903192243 | 60 | 196 | 7.0 | 15.0 | 0.00 | 0.21 | 0.07 | 70 | 1008.7 |
| 20260903191739 | 60 | 208 | 7.0 | 13.0 | 0.00 | 0.21 | 0.07 | 72 | 1008.7 |
| 20260903191240 | 60 | 194 | 8.0 | 15.0 | 0.00 | 0.21 | 0.07 | 71 | 1008.7 |
| 20260903191036 | 60 | 155 | 8.0 | 15.0 | 0.00 | 0.21 | 0.07 | 70 | 1008.7 |
| 20260903190240 | 60 | 180 | 7.0 | 16.0 | 0.00 | 0.21 | 0.07 | 71 | 1008.7 |
| 20260903185738 | 60 | 183 | 9.0 | 16.0 | 0.00 | 0.21 | 0.07 | 72 | 1008.7 |
| 20260903185238 | 60 | 203 | 10.0 | 18.0 | 0.00 | 0.21 | 0.07 | 72 | 1008.7 |
| 20260903184740 | 60 | 221 | 8.0 | 18.0 | 0.00 | 0.21 | 0.07 | 71 | 1008.7 |
| 20260903184234 | 60 | 207 | 10.0 | 21.0 | 0.00 | 0.21 | 0.07 | 73 | 1008.7 |
| 20260903183737 | 59 | 181 | 12.0 | 25.0 | 0.00 | 0.21 | 0.07 | 73 | 1008.6 |
| 20260903183534 | 60 | 191 | 10.0 | 25.0 | 0.00 | 0.21 | 0.07 | 74 | 1008.6 |
| 20260903182731 | 60 | 216 | 9.0 | 19.0 | 0.00 | 0.21 | 0.07 | 73 | 1008.6 |
| 20260903182233 | 60 | 194 | 10.0 | 21.0 | 0.00 | 0.21 | 0.07 | 74 | 1008.6 |
| 20260903181732 | 60 | 190 | 9.0 | 21.0 | 0.00 | 0.21 | 0.07 | 74 | 1008.6 |
| 20260903181222 | 59 | 184 | 10.0 | 19.0 | 0.00 | 0.21 | 0.07 | 75 | 1008.6 |
| 20260903180725 | 59 | 197 | 10.0 | 19.0 | 0.00 | 0.21 | 0.07 | 75 | 1008.4 |
| 20260903180218 | 59 | 223 | 9.0 | 19.0 | 0.00 | 0.21 | 0.07 | 76 | 1008.4 |
| 20260903175712 | 59 | 201 | 8.0 | 13.0 | 0.00 | 0.21 | 0.07 | 77 | 1008.4 |
| 20260903175514 | 59 | 186 | 7.0 | 14.0 | 0.00 | 0.21 | 0.07 | 76 | 1008.2 |
| 20260903174713 | 59 | 182 | 9.0 | 21.0 | 0.00 | 0.21 | 0.07 | 77 | 1008.2 |
| 20260903174503 | 59 | 192 | 11.0 | 21.0 | 0.00 | 0.21 | 0.07 | 76 | 1008.2 |
| 20260903173713 | 59 | 225 | 8.0 | 20.0 | 0.00 | 0.21 | 0.07 | 76 | 1008.2 |
| 20260903173504 | 59 | 175 | 6.0 | 13.0 | 0.00 | 0.21 | 0.07 | 78 | 1008.2 |
| 20260903172705 | 58 | 165 | 8.0 | 15.0 | 0.00 | 0.21 | 0.07 | 79 | 1008.2 |
| 20260903172257 | 58 | 176 | 7.0 | 15.0 | 0.00 | 0.21 | 0.07 | 79 | 1008.2 |
| 20260903171257 | 58 | 185 | 6.0 | 14.0 | 0.00 | 0.21 | 0.07 | 81 | 1008.2 |
| 20260903170202 | 57 | 192 | 6.0 | 12.0 | 0.00 | 0.21 | 0.07 | 83 | 1008.1 |
| 20260903165702 | 57 | 231 | 6.0 | 13.0 | 0.00 | 0.21 | 0.07 | 84 | 1008.1 |
| 20260903165204 | 57 | 170 | 5.0 | 13.0 | 0.00 | 0.21 | 0.07 | 84 | 1008.1 |
| 20260903164709 | 57 | 184 | 4.0 | 11.0 | 0.00 | 0.21 | 0.07 | 85 | 1008.1 |
| 20260903164204 | 57 | 189 | 4.0 | 7.0 | 0.00 | 0.21 | 0.07 | 86 | 1008.1 |
| 20260903163706 | 56 | 209 | 4.0 | 9.0 | 0.00 | 0.21 | 0.07 | 86 | 1008.1 |
| 20260903163504 | 56 | 174 | 5.0 | 12.0 | 0.00 | 0.21 | 0.07 | 86 | 1008.1 |
| 20260903162701 | 56 | 154 | 5.0 | 12.0 | 0.01 | 0.21 | 0.07 | 86 | 1008.1 |
| 20260903162206 | 56 | 184 | 4.0 | 9.0 | 0.01 | 0.21 | 0.07 | 87 | 1008.2 |
| 20260903161958 | 56 | 177 | 4.0 | 8.0 | 0.01 | 0.21 | 0.07 | 87 | 1008.2 |
| 20260903161202 | 56 | 196 | 5.0 | 9.0 | 0.01 | 0.21 | 0.07 | 87 | 1008.2 |
| 20260903161014 | 56 | 192 | 5.0 | 9.0 | 0.01 | 0.21 | 0.07 | 87 | 1008.2 |
| 20260903160206 | 56 | 183 | 5.0 | 12.0 | 0.01 | 0.21 | 0.07 | 87 | 1008.2 |
| 20260903155702 | 56 | 230 | 5.0 | 12.0 | 0.01 | 0.21 | 0.07 | 88 | 1008.2 |
| 20260903155202 | 56 | 175 | 5.0 | 10.0 | 0.01 | 0.21 | 0.07 | 88 | 1008.1 |
| 20260903155011 | 56 | 167 | 5.0 | 11.0 | 0.01 | 0.21 | 0.07 | 88 | 1008.1 |
| 20260903154508 | 56 | 212 | 5.0 | 11.0 | 0.01 | 0.21 | 0.07 | 88 | 1008.1 |
| 20260903153708 | 56 | 177 | 6.0 | 12.0 | 0.01 | 0.21 | 0.07 | 88 | 1008.1 |
| 20260903153517 | 56 | 194 | 7.0 | 12.0 | 0.01 | 0.21 | 0.07 | 88 | 1008.1 |
| 20260903152947 | 56 | 185 | 6.0 | 12.0 | 0.00 | 0.20 | 0.06 | 88 | 1008.1 |
| 20260903152146 | 56 | 148 | 5.0 | 10.0 | 0.00 | 0.20 | 0.06 | 88 | 1008.0 |
| 20260903151645 | 56 | 188 | 5.0 | 10.0 | 0.00 | 0.20 | 0.06 | 88 | 1008.0 |
| 20260903151137 | 55 | 211 | 4.0 | 7.0 | 0.00 | 0.20 | 0.06 | 88 | 1007.7 |
| 20260903150634 | 55 | 177 | 5.0 | 10.0 | 0.01 | 0.20 | 0.06 | 88 | 1007.7 |
| 20260903150124 | 55 | 193 | 5.0 | 10.0 | 0.01 | 0.20 | 0.06 | 88 | 1007.7 |
| 20260903145624 | 55 | 217 | 4.0 | 10.0 | 0.01 | 0.20 | 0.06 | 88 | 1007.6 |
| 20260903145422 | 55 | 167 | 6.0 | 11.0 | 0.01 | 0.20 | 0.06 | 87 | 1007.6 |
| 20260903144622 | 55 | 198 | 6.0 | 11.0 | 0.01 | 0.20 | 0.06 | 87 | 1007.6 |
| 20260903144126 | 55 | 198 | 6.0 | 14.0 | 0.01 | 0.20 | 0.06 | 88 | 1007.6 |
| 20260903143625 | 55 | 171 | 6.0 | 14.0 | 0.01 | 0.20 | 0.06 | 88 | 1007.6 |
| 20260903143120 | 55 | 177 | 6.0 | 13.0 | 0.01 | 0.20 | 0.06 | 88 | 1007.6 |
| 20260903142613 | 55 | 171 | 6.0 | 14.0 | 0.01 | 0.20 | 0.06 | 88 | 1007.5 |
| 20260903142111 | 55 | 177 | 7.0 | 16.0 | 0.01 | 0.20 | 0.06 | 88 | 1007.5 |
| 20260903141609 | 55 | 190 | 8.0 | 16.0 | 0.01 | 0.20 | 0.06 | 88 | 1007.5 |
| 20260903141106 | 55 | 177 | 7.0 | 13.0 | 0.01 | 0.20 | 0.05 | 87 | 1007.3 |
| 20260903140606 | 55 | 205 | 6.0 | 12.0 | 0.01 | 0.19 | 0.05 | 87 | 1007.3 |
| 20260903140107 | 55 | 172 | 6.0 | 11.0 | 0.01 | 0.19 | 0.05 | 87 | 1007.3 |
| 20260903135611 | 55 | 163 | 7.0 | 15.0 | 0.01 | 0.19 | 0.05 | 86 | 1007.2 |
| 20260903135410 | 55 | 227 | 7.0 | 15.0 | 0.01 | 0.19 | 0.05 | 86 | 1007.2 |
| 20260903134917 | 55 | 163 | 6.0 | 13.0 | 0.01 | 0.19 | 0.05 | 86 | 1007.2 |
| 20260903134105 | 55 | 187 | 6.0 | 12.0 | 0.01 | 0.19 | 0.05 | 87 | 1007.1 |
| 20260903133605 | 55 | 161 | 6.0 | 15.0 | 0.01 | 0.19 | 0.05 | 87 | 1007.1 |
| 20260903133103 | 55 | 198 | 6.0 | 16.0 | 0.01 | 0.19 | 0.05 | 87 | 1007.1 |
| 20260903132602 | 55 | 174 | 6.0 | 16.0 | 0.01 | 0.19 | 0.05 | 87 | 1007.1 |
| 20260903132105 | 55 | 198 | 5.0 | 12.0 | 0.01 | 0.19 | 0.05 | 88 | 1007.1 |
| 20260903131913 | 55 | 202 | 5.0 | 12.0 | 0.01 | 0.19 | 0.05 | 88 | 1007.1 |
| 20260903131102 | 55 | 169 | 7.0 | 12.0 | 0.01 | 0.19 | 0.05 | 87 | 1007.0 |
| 20260903130552 | 55 | 201 | 7.0 | 14.0 | 0.00 | 0.18 | 0.04 | 87 | 1007.0 |
| 20260903130042 | 55 | 202 | 6.0 | 16.0 | 0.00 | 0.18 | 0.04 | 87 | 1007.0 |
| 20260903125531 | 55 | 172 | 5.0 | 16.0 | 0.01 | 0.18 | 0.04 | 87 | 1006.9 |
| 20260903125031 | 55 | 202 | 5.0 | 12.0 | 0.01 | 0.18 | 0.04 | 87 | 1006.9 |
| 20260903124531 | 56 | 225 | 6.0 | 12.0 | 0.01 | 0.18 | 0.04 | 87 | 1006.9 |
| 20260903124022 | 55 | 186 | 7.0 | 13.0 | 0.01 | 0.18 | 0.04 | 87 | 1007.0 |
| 20260903123511 | 55 | 176 | 8.0 | 13.0 | 0.02 | 0.18 | 0.04 | 87 | 1007.0 |
| 20260903123007 | 55 | 182 | 7.0 | 13.0 | 0.02 | 0.18 | 0.04 | 87 | 1007.0 |
| 20260903122506 | 55 | 197 | 7.0 | 12.0 | 0.02 | 0.18 | 0.04 | 87 | 1006.9 |
| 20260903122004 | 55 | 190 | 7.0 | 13.0 | 0.02 | 0.18 | 0.04 | 87 | 1006.9 |
| 20260903121501 | 55 | 201 | 6.0 | 13.0 | 0.02 | 0.18 | 0.04 | 87 | 1006.9 |
| 20260903121001 | 55 | 198 | 5.0 | 11.0 | 0.02 | 0.18 | 0.04 | 88 | 1006.9 |
| 20260903120501 | 55 | 174 | 6.0 | 15.0 | 0.03 | 0.18 | 0.04 | 88 | 1006.9 |
| 20260903120002 | 55 | 164 | 7.0 | 15.0 | 0.02 | 0.17 | 0.03 | 88 | 1006.9 |
| 20260903115502 | 55 | 183 | 7.0 | 13.0 | 0.02 | 0.17 | 0.03 | 88 | 1006.8 |
| 20260903115001 | 55 | 173 | 6.0 | 15.0 | 0.02 | 0.17 | 0.03 | 87 | 1006.8 |
| 20260903114501 | 55 | 196 | 6.0 | 15.0 | 0.02 | 0.17 | 0.03 | 87 | 1006.8 |
| 20260903114319 | 55 | 217 | 6.0 | 12.0 | 0.02 | 0.17 | 0.03 | 87 | 1006.7 |
| 20260903113505 | 56 | 192 | 6.0 | 11.0 | 0.01 | 0.16 | 0.02 | 87 | 1006.7 |
| 20260903113007 | 56 | 159 | 7.0 | 14.0 | 0.01 | 0.16 | 0.02 | 87 | 1006.7 |
| 20260903112508 | 56 | 165 | 7.0 | 14.0 | 0.01 | 0.16 | 0.02 | 87 | 1006.8 |
| 20260903112002 | 56 | 168 | 7.0 | 13.0 | 0.01 | 0.16 | 0.02 | 86 | 1006.8 |
| 20260903111503 | 56 | 187 | 7.0 | 12.0 | 0.01 | 0.16 | 0.02 | 86 | 1006.8 |
| 20260903111002 | 56 | 226 | 7.0 | 12.0 | 0.01 | 0.16 | 0.02 | 85 | 1006.9 |
| 20260903110503 | 56 | 188 | 6.0 | 12.0 | 0.00 | 0.15 | 0.01 | 85 | 1006.9 |
| 20260903105955 | 56 | 221 | 6.0 | 15.0 | 0.00 | 0.15 | 0.01 | 84 | 1006.9 |
| 20260903105454 | 56 | 169 | 6.0 | 15.0 | 0.00 | 0.15 | 0.01 | 84 | 1006.9 |
| 20260903105027 | 56 | 169 | 5.0 | 10.0 | 0.00 | 0.15 | 0.01 | 84 | 1006.9 |
| 20260903103934 | 56 | 180 | 4.0 | 7.0 | 0.00 | 0.15 | 0.01 | 84 | 1006.9 |
| 20260903103425 | 56 | 200 | 4.0 | 9.0 | 0.00 | 0.15 | 0.01 | 84 | 1006.9 |
| 20260903102922 | 56 | 177 | 4.0 | 9.0 | 0.00 | 0.15 | 0.01 | 84 | 1006.9 |
| 20260903102417 | 56 | 191 | 4.0 | 7.0 | 0.00 | 0.15 | 0.01 | 84 | 1006.7 |
| 20260903101912 | 56 | 196 | 4.0 | 8.0 | 0.00 | 0.15 | 0.01 | 84 | 1006.7 |
| 20260903101412 | 56 | 177 | 4.0 | 8.0 | 0.00 | 0.15 | 0.01 | 84 | 1006.7 |
| 20260903100912 | 56 | 215 | 4.0 | 7.0 | 0.00 | 0.15 | 0.01 | 84 | 1006.6 |
| 20260903100740 | 56 | 228 | 3.0 | 7.0 | 0.00 | 0.15 | 0.01 | 84 | 1006.6 |
| 20260903095908 | 56 | 180 | 4.0 | 7.0 | 0.00 | 0.15 | 0.01 | 84 | 1006.6 |
| 20260903095409 | 56 | 188 | 5.0 | 10.0 | 0.00 | 0.15 | 0.01 | 84 | 1006.6 |
| 20260903094907 | 56 | 182 | 5.0 | 10.0 | 0.00 | 0.15 | 0.01 | 84 | 1006.6 |
| 20260903094705 | 56 | 185 | 4.0 | 7.0 | 0.00 | 0.15 | 0.01 | 84 | 1006.6 |
| 20260903094222 | 56 | 177 | 4.0 | 11.0 | 0.00 | 0.15 | 0.01 | 84 | 1006.6 |
| 20260903093835 | 56 | 176 | 5.0 | 11.0 | 0.00 | 0.15 | 0.01 | 84 | 1006.6 |
| 20260903092401 | 56 | 172 | 5.0 | 10.0 | 0.00 | 0.15 | 0.01 | 84 | 1006.8 |
| 20260903091902 | 56 | 169 | 4.0 | 10.0 | 0.00 | 0.15 | 0.01 | 84 | 1006.8 |
| 20260903091401 | 56 | 178 | 4.0 | 10.0 | 0.00 | 0.15 | 0.01 | 85 | 1006.8 |
| 20260903090901 | 56 | 200 | 4.0 | 9.0 | 0.00 | 0.15 | 0.01 | 85 | 1006.7 |
| 20260903090417 | 56 | 176 | 5.0 | 11.0 | 0.00 | 0.15 | 0.01 | 86 | 1006.7 |
| 20260903085914 | 56 | 210 | 5.0 | 11.0 | 0.00 | 0.15 | 0.01 | 85 | 1006.7 |
| 20260903085412 | 56 | 187 | 5.0 | 11.0 | 0.00 | 0.15 | 0.01 | 86 | 1006.7 |
| 20260903084903 | 56 | 222 | 5.0 | 11.0 | 0.01 | 0.15 | 0.01 | 86 | 1006.7 |
| 20260903084403 | 56 | 190 | 5.0 | 10.0 | 0.01 | 0.15 | 0.01 | 86 | 1006.7 |
| 20260903083901 | 56 | 206 | 6.0 | 11.0 | 0.01 | 0.15 | 0.01 | 86 | 1006.7 |
| 20260903083406 | 56 | 192 | 6.0 | 11.0 | 0.01 | 0.15 | 0.01 | 86 | 1006.7 |
| 20260903083156 | 56 | 182 | 7.0 | 12.0 | 0.01 | 0.15 | 0.01 | 86 | 1006.7 |
| 20260903082402 | 56 | 192 | 6.0 | 12.0 | 0.01 | 0.15 | 0.01 | 86 | 1006.6 |
| 20260903081902 | 56 | 193 | 5.0 | 9.0 | 0.01 | 0.15 | 0.01 | 86 | 1006.6 |
| 20260903081654 | 56 | 213 | 5.0 | 10.0 | 0.01 | 0.15 | 0.01 | 87 | 1006.6 |
| 20260903080900 | 56 | 202 | 5.0 | 10.0 | 0.01 | 0.15 | 0.01 | 86 | 1006.6 |
| 20260903080730 | 56 | 198 | 4.0 | 9.0 | 0.01 | 0.15 | 0.01 | 86 | 1006.6 |